User: anonymous   Login
Location: Oshawa
(43.9000°N, 78.8670°W)
Time: 17:22:49
(UTC-05:00)
Language:

Iridium 54 - Orbit

View from above orbital plane
View from above orbital plane
View from above satellite
View from above satellite

Ground track
Ground track

The orbit data is extracted from the following two-line orbital elements,

1 25171U 98010C   15029.56282123  .00000453  00000-0  15461-3 0   847
2 25171 086.3991 353.8683 0002264 102.2056 257.9394 14.34220263887289
Epoch (UTC): 29 January 2015 13:30:27
Eccentricity: 0.0002264
inclination: 86.3991°
perigee height: 776 km
apogee height: 779 km
right ascension of ascending node: 353.8683°
argument of perigee: 102.2056°
revolutions per day: 14.34220263
mean anomaly at epoch: 257.9394°
orbit number at epoch: 88728

The dashed part of the orbit path shows where the satellite is in the earth's shadow,  

DLR